View from above orbital plane
|
View from above satellite
|
Ground track
|
The orbit data is extracted from the following two-line orbital elements,
1 22828U 93061F 13142.82649139 .00000159 00000-0 78271-4 0 3363
2 22828 098.6035 086.8915 0009076 333.5317 060.2402 14.30119720993451
| Epoch (UTC): | 22 May 2013 19:50:08 |
| Eccentricity: | 0.0009076 |
| inclination: | 98.6035° |
| perigee height: | 785 km |
| apogee height: | 798 km |
| right ascension of ascending node: | 86.8915° |
| argument of perigee: | 333.5317° |
| revolutions per day: | 14.30119720 |
| mean anomaly at epoch: | 60.2402° |
| orbit number at epoch: | 99345 |
The dashed part of the orbit path shows where the satellite is in the earth's shadow,
|
|